![]() |
EMODnet Physics ERDDAP
Easier access to scientific data |
log in|
Brought to you by EMODnet Physics |
| Dataset Title: | NDBC - Collection of dew point temperature (DEWT) TimeSeries - IN SITU MultiPointTimeSeriesObservation
|
| Institution: | NDBC (Dataset ID: TS_DEWT_NDBC) |
| Information: | Summary
| License
| FGDC
| ISO 19115
| Metadata
| Background
| Subset
| Data Access Form
| Make a graph
|
| Name | Last modified | Size | Description | |
|---|---|---|---|---|
| Parent Directory | - | - | ||
| 41009_TS_DEWT_011989.nc | 26-Oct-2024 10:00 | 450231 | ||
| 41009_TS_DEWT_011990.nc | 26-Oct-2024 10:01 | 450636 | ||
| 41009_TS_DEWT_011991.nc | 26-Oct-2024 10:01 | 450572 | ||
| 41009_TS_DEWT_011992.nc | 26-Oct-2024 10:01 | 450071 | ||
| 41009_TS_DEWT_011993.nc | 26-Oct-2024 10:01 | 451035 | ||
| 41009_TS_DEWT_011994.nc | 26-Oct-2024 10:01 | 429833 | ||
| 41009_TS_DEWT_011995.nc | 26-Oct-2024 10:01 | 429836 | ||
| 41009_TS_DEWT_011996.nc | 26-Oct-2024 10:01 | 1019590 | ||
| 41009_TS_DEWT_011997.nc | 26-Oct-2024 10:01 | 5222345 | ||
| 41009_TS_DEWT_011998.nc | 26-Oct-2024 10:01 | 5676225 | ||
| 41009_TS_DEWT_011999.nc | 26-Oct-2024 10:01 | 429621 | ||
| 41009_TS_DEWT_012000.nc | 26-Oct-2024 10:01 | 429620 | ||
| 41009_TS_DEWT_012001.nc | 26-Oct-2024 10:01 | 429615 | ||
| 41009_TS_DEWT_012002.nc | 26-Oct-2024 10:01 | 429612 | ||
| 41009_TS_DEWT_012003.nc | 26-Oct-2024 10:01 | 429570 | ||
| 41009_TS_DEWT_012004.nc | 26-Oct-2024 10:01 | 429612 | ||
| 41009_TS_DEWT_012005.nc | 26-Oct-2024 10:01 | 429610 | ||
| 41009_TS_DEWT_012006.nc | 26-Oct-2024 10:02 | 429601 | ||
| 41009_TS_DEWT_012007.nc | 26-Oct-2024 10:02 | 429610 | ||
| 41009_TS_DEWT_012008.nc | 26-Oct-2024 10:02 | 429608 | ||
| 41009_TS_DEWT_012009.nc | 26-Oct-2024 10:02 | 429615 | ||
| 41009_TS_DEWT_012010.nc | 26-Oct-2024 10:02 | 429623 | ||
| 41009_TS_DEWT_012011.nc | 26-Oct-2024 10:02 | 428787 | ||
| 41009_TS_DEWT_012012.nc | 26-Oct-2024 10:02 | 429615 | ||
| 41009_TS_DEWT_012013.nc | 26-Oct-2024 10:02 | 429616 | ||
| 41009_TS_DEWT_012014.nc | 26-Oct-2024 10:02 | 450524 | ||
| 41009_TS_DEWT_012015.nc | 26-Oct-2024 10:02 | 630668 | ||
| 41009_TS_DEWT_012016.nc | 26-Oct-2024 10:02 | 588135 | ||
| 41009_TS_DEWT_012018.nc | 26-Oct-2024 10:02 | 588166 | ||
| 41009_TS_DEWT_012019.nc | 26-Oct-2024 10:02 | 590701 | ||
| 41009_TS_DEWT_012020.nc | 26-Oct-2024 10:02 | 628827 | ||
| 41009_TS_DEWT_012021.nc | 26-Oct-2024 10:03 | 450754 | ||
| 41009_TS_DEWT_012022.nc | 26-Oct-2024 10:03 | 628272 | ||
| 41009_TS_DEWT_012023.nc | 26-Oct-2024 10:03 | 631493 | ||
| 41009_TS_DEWT_012024.nc | 26-Oct-2024 10:03 | 628860 | ||
| 41009_TS_DEWT_012025.nc | 07-Feb-2025 12:19 | 628347 | ||
| 41009_TS_DEWT_012026.nc | 02-Feb-2026 13:47 | 628263 | ||
| 41009_TS_DEWT_021989.nc | 26-Oct-2024 10:03 | 629155 | ||
| 41009_TS_DEWT_021990.nc | 26-Oct-2024 10:03 | 1266059 | ||
| 41009_TS_DEWT_021991.nc | 26-Oct-2024 10:03 | 1266412 | ||
| 41009_TS_DEWT_021992.nc | 26-Oct-2024 10:03 | 1264918 | ||
| 41009_TS_DEWT_021993.nc | 26-Oct-2024 10:03 | 1265101 | ||
| 41009_TS_DEWT_021994.nc | 26-Oct-2024 10:03 | 1268050 | ||
| 41009_TS_DEWT_021995.nc | 26-Oct-2024 10:03 | 1144168 | ||
| 41009_TS_DEWT_021996.nc | 26-Oct-2024 10:03 | 1003285 | ||
| 41009_TS_DEWT_021997.nc | 26-Oct-2024 10:03 | 4566915 | ||
| 41009_TS_DEWT_021998.nc | 26-Oct-2024 10:03 | 430438 | ||
| 41009_TS_DEWT_021999.nc | 26-Oct-2024 10:04 | 428616 | ||
| 41009_TS_DEWT_022000.nc | 26-Oct-2024 10:04 | 428616 | ||
| 41009_TS_DEWT_022001.nc | 26-Oct-2024 10:04 | 428616 | ||
| 41009_TS_DEWT_022002.nc | 26-Oct-2024 10:04 | 428947 | ||
| 41009_TS_DEWT_022003.nc | 26-Oct-2024 10:04 | 428597 | ||
| 41009_TS_DEWT_022004.nc | 26-Oct-2024 10:04 | 428482 | ||
| 41009_TS_DEWT_022005.nc | 26-Oct-2024 10:04 | 428616 | ||
| 41009_TS_DEWT_022006.nc | 26-Oct-2024 10:04 | 428961 | ||
| 41009_TS_DEWT_022007.nc | 26-Oct-2024 10:04 | 428613 | ||
| 41009_TS_DEWT_022008.nc | 26-Oct-2024 10:04 | 428615 | ||
| 41009_TS_DEWT_022009.nc | 26-Oct-2024 10:04 | 428613 | ||
| 41009_TS_DEWT_022010.nc | 26-Oct-2024 10:04 | 428959 | ||
| 41009_TS_DEWT_022011.nc | 26-Oct-2024 10:04 | 428616 | ||
| 41009_TS_DEWT_022012.nc | 26-Oct-2024 10:04 | 428613 | ||
| 41009_TS_DEWT_022013.nc | 26-Oct-2024 10:04 | 428612 | ||
| 41009_TS_DEWT_022014.nc | 26-Oct-2024 10:04 | 449177 | ||
| 41009_TS_DEWT_022015.nc | 26-Oct-2024 10:05 | 476097 | ||
| 41009_TS_DEWT_022016.nc | 26-Oct-2024 10:05 | 438800 | ||
| 41009_TS_DEWT_022018.nc | 26-Oct-2024 10:05 | 438752 | ||
| 41009_TS_DEWT_022019.nc | 26-Oct-2024 10:05 | 461291 | ||
| 41009_TS_DEWT_022020.nc | 26-Oct-2024 10:05 | 465956 | ||
| 41009_TS_DEWT_022021.nc | 26-Oct-2024 10:05 | 476869 | ||
| 41009_TS_DEWT_022022.nc | 26-Oct-2024 10:05 | 477088 | ||
| 41009_TS_DEWT_022023.nc | 26-Oct-2024 10:05 | 477692 | ||
| 41009_TS_DEWT_022024.nc | 16-Sep-2024 16:51 | 477258 | ||
| 41009_TS_DEWT_022025.nc | 01-Mar-2025 09:22 | 476390 | ||
| 41009_TS_DEWT_022026.nc | 01-Mar-2026 12:45 | 475742 | ||
| 41009_TS_DEWT_031989.nc | 26-Oct-2024 10:05 | 478160 | ||
| 41009_TS_DEWT_031990.nc | 26-Oct-2024 10:05 | 1026533 | ||
| 41009_TS_DEWT_031991.nc | 26-Oct-2024 10:05 | 1026847 | ||
| 41009_TS_DEWT_031992.nc | 26-Oct-2024 10:05 | 1110290 | ||
| 41009_TS_DEWT_031993.nc | 26-Oct-2024 10:05 | 1027250 | ||
| 41009_TS_DEWT_031994.nc | 26-Oct-2024 10:05 | 1029248 | ||
| 41009_TS_DEWT_031995.nc | 26-Oct-2024 10:05 | 918136 | ||
| 41009_TS_DEWT_031996.nc | 26-Oct-2024 10:06 | 424700 | ||
| 41009_TS_DEWT_031997.nc | 26-Oct-2024 10:06 | 3324576 | ||
| 41009_TS_DEWT_031998.nc | 26-Oct-2024 10:06 | 5122211 | ||
| 41009_TS_DEWT_031999.nc | 26-Oct-2024 10:06 | 429608 | ||
| 41009_TS_DEWT_032000.nc | 26-Oct-2024 10:06 | 429604 | ||
| 41009_TS_DEWT_032001.nc | 26-Oct-2024 10:06 | 429621 | ||
| 41009_TS_DEWT_032002.nc | 26-Oct-2024 10:06 | 429598 | ||
| 41009_TS_DEWT_032003.nc | 26-Oct-2024 10:06 | 429560 | ||
| 41009_TS_DEWT_032004.nc | 26-Oct-2024 10:06 | 429621 | ||
| 41009_TS_DEWT_032005.nc | 26-Oct-2024 10:06 | 429614 | ||
| 41009_TS_DEWT_032006.nc | 26-Oct-2024 10:06 | 429616 | ||
| 41009_TS_DEWT_032007.nc | 26-Oct-2024 10:06 | 429622 | ||
| 41009_TS_DEWT_032008.nc | 26-Oct-2024 10:07 | 429609 | ||
| 41009_TS_DEWT_032009.nc | 26-Oct-2024 10:07 | 429610 | ||
| 41009_TS_DEWT_032010.nc | 26-Oct-2024 10:07 | 429617 | ||
| 41009_TS_DEWT_032011.nc | 26-Oct-2024 10:07 | 429610 | ||
| 41009_TS_DEWT_032012.nc | 26-Oct-2024 10:07 | 429610 | ||
| 41009_TS_DEWT_032013.nc | 26-Oct-2024 10:07 | 425295 | ||
| 41009_TS_DEWT_032014.nc | 26-Oct-2024 10:07 | 450675 | ||
| 41009_TS_DEWT_032015.nc | 26-Oct-2024 10:07 | 444768 | ||
| 41009_TS_DEWT_032016.nc | 26-Oct-2024 10:07 | 588173 | ||
| 41009_TS_DEWT_032018.nc | 26-Oct-2024 10:07 | 588025 | ||
| 41009_TS_DEWT_032019.nc | 26-Oct-2024 10:07 | 462946 | ||
| 41009_TS_DEWT_032020.nc | 26-Oct-2024 10:07 | 628338 | ||
| 41009_TS_DEWT_032021.nc | 26-Oct-2024 10:07 | 629689 | ||
| 41009_TS_DEWT_032022.nc | 26-Oct-2024 10:07 | 630072 | ||
| 41009_TS_DEWT_032023.nc | 26-Oct-2024 10:07 | 628806 | ||
| 41009_TS_DEWT_032025.nc | 02-Apr-2025 07:38 | 629338 | ||
| 41009_TS_DEWT_032026.nc | 21-Mar-2026 16:49 | 629696 | ||
| 41009_TS_DEWT_041989.nc | 26-Oct-2024 10:08 | 628488 | ||
| 41009_TS_DEWT_041990.nc | 26-Oct-2024 10:08 | 627370 | ||
| 41009_TS_DEWT_041991.nc | 26-Oct-2024 10:08 | 1265742 | ||
| 41009_TS_DEWT_041992.nc | 26-Oct-2024 10:08 | 1263469 | ||
| 41009_TS_DEWT_041993.nc | 26-Oct-2024 10:08 | 1263398 | ||
| 41009_TS_DEWT_041994.nc | 26-Oct-2024 10:08 | 1006476 | ||
| 41009_TS_DEWT_041995.nc | 26-Oct-2024 10:08 | 1268000 | ||
| 41009_TS_DEWT_041996.nc | 26-Oct-2024 10:08 | 1144240 | ||
| 41009_TS_DEWT_041997.nc | 26-Oct-2024 10:08 | 4010722 | ||
| 41009_TS_DEWT_041998.nc | 26-Oct-2024 10:08 | 3469896 | ||
| 41009_TS_DEWT_041999.nc | 26-Oct-2024 10:08 | 429288 | ||
| 41009_TS_DEWT_042000.nc | 26-Oct-2024 10:08 | 429232 | ||
| 41009_TS_DEWT_042001.nc | 26-Oct-2024 10:08 | 429288 | ||
| 41009_TS_DEWT_042002.nc | 26-Oct-2024 10:08 | 429291 | ||
| 41009_TS_DEWT_042003.nc | 26-Oct-2024 10:08 | 429282 | ||
| 41009_TS_DEWT_042004.nc | 26-Oct-2024 10:09 | 429290 | ||
| 41009_TS_DEWT_042005.nc | 26-Oct-2024 10:09 | 429296 | ||
| 41009_TS_DEWT_042006.nc | 26-Oct-2024 10:09 | 429284 | ||
| 41009_TS_DEWT_042007.nc | 26-Oct-2024 10:09 | 429286 | ||
| 41009_TS_DEWT_042008.nc | 26-Oct-2024 10:09 | 429295 | ||
| 41009_TS_DEWT_042009.nc | 26-Oct-2024 10:09 | 429290 | ||
| 41009_TS_DEWT_042010.nc | 26-Oct-2024 10:09 | 429288 | ||
| 41009_TS_DEWT_042011.nc | 26-Oct-2024 10:09 | 429289 | ||
| 41009_TS_DEWT_042012.nc | 26-Oct-2024 10:09 | 429288 | ||
| 41009_TS_DEWT_042013.nc | 26-Oct-2024 10:09 | 438458 | ||
| 41009_TS_DEWT_042014.nc | 26-Oct-2024 10:09 | 449437 | ||
| 41009_TS_DEWT_042015.nc | 26-Oct-2024 10:09 | 458883 | ||
| 41009_TS_DEWT_042016.nc | 26-Oct-2024 10:09 | 440098 | ||
| 41009_TS_DEWT_042017.nc | 26-Oct-2024 10:10 | 440031 | ||
| 41009_TS_DEWT_042018.nc | 26-Oct-2024 10:10 | 480408 | ||
| 41009_TS_DEWT_042019.nc | 26-Oct-2024 10:10 | 481180 | ||
| 41009_TS_DEWT_042020.nc | 26-Oct-2024 10:10 | 479787 | ||
| 41009_TS_DEWT_042021.nc | 26-Oct-2024 10:10 | 479832 | ||
| 41009_TS_DEWT_042022.nc | 26-Oct-2024 10:10 | 479315 | ||
| 41009_TS_DEWT_042023.nc | 26-Oct-2024 10:10 | 478795 | ||
| 41009_TS_DEWT_042025.nc | 01-May-2025 04:49 | 480836 | ||
| 41009_TS_DEWT_051989.nc | 26-Oct-2024 10:10 | 478725 | ||
| 41009_TS_DEWT_051990.nc | 26-Oct-2024 10:10 | 478595 | ||
| 41009_TS_DEWT_051991.nc | 26-Oct-2024 10:10 | 469279 | ||
| 41009_TS_DEWT_051992.nc | 26-Oct-2024 10:10 | 1113730 | ||
| 41009_TS_DEWT_051993.nc | 26-Oct-2024 10:10 | 1113338 | ||
| 41009_TS_DEWT_051994.nc | 26-Oct-2024 10:10 | 1114982 | ||
| 41009_TS_DEWT_051995.nc | 26-Oct-2024 10:10 | 1053194 | ||
| 41009_TS_DEWT_051996.nc | 26-Oct-2024 10:11 | 1112854 | ||
| 41009_TS_DEWT_051997.nc | 26-Oct-2024 10:11 | 995561 | ||
| 41009_TS_DEWT_051998.nc | 26-Oct-2024 10:11 | 4719112 | ||
| 41009_TS_DEWT_051999.nc | 26-Oct-2024 10:11 | 429620 | ||
| 41009_TS_DEWT_052000.nc | 26-Oct-2024 10:11 | 429618 | ||
| 41009_TS_DEWT_052001.nc | 26-Oct-2024 10:11 | 426457 | ||
| 41009_TS_DEWT_052002.nc | 26-Oct-2024 10:11 | 429614 | ||
| 41009_TS_DEWT_052003.nc | 26-Oct-2024 10:11 | 429624 | ||
| 41009_TS_DEWT_052004.nc | 26-Oct-2024 10:11 | 429611 | ||
| 41009_TS_DEWT_052005.nc | 26-Oct-2024 10:11 | 429610 | ||
| 41009_TS_DEWT_052006.nc | 26-Oct-2024 10:11 | 429623 | ||
| 41009_TS_DEWT_052007.nc | 26-Oct-2024 10:11 | 429613 | ||
| 41009_TS_DEWT_052008.nc | 26-Oct-2024 10:11 | 429610 | ||
| 41009_TS_DEWT_052009.nc | 26-Oct-2024 10:11 | 429616 | ||
| 41009_TS_DEWT_052010.nc | 26-Oct-2024 10:11 | 429610 | ||
| 41009_TS_DEWT_052011.nc | 26-Oct-2024 10:11 | 429609 | ||
| 41009_TS_DEWT_052012.nc | 26-Oct-2024 10:12 | 429617 | ||
| 41009_TS_DEWT_052013.nc | 26-Oct-2024 10:12 | 450346 | ||
| 41009_TS_DEWT_052014.nc | 26-Oct-2024 10:12 | 450727 | ||
| 41009_TS_DEWT_052015.nc | 26-Oct-2024 10:12 | 631097 | ||
| 41009_TS_DEWT_052016.nc | 26-Oct-2024 10:12 | 588127 | ||
| 41009_TS_DEWT_052017.nc | 26-Oct-2024 10:12 | 588120 | ||
| 41009_TS_DEWT_052018.nc | 26-Oct-2024 10:12 | 630919 | ||
| 41009_TS_DEWT_052019.nc | 26-Oct-2024 10:12 | 630504 | ||
| 41009_TS_DEWT_052020.nc | 26-Oct-2024 10:12 | 629571 | ||
| 41009_TS_DEWT_052021.nc | 26-Oct-2024 10:12 | 629093 | ||
| 41009_TS_DEWT_052022.nc | 26-Oct-2024 10:12 | 628575 | ||
| 41009_TS_DEWT_052023.nc | 26-Oct-2024 10:12 | 629922 | ||
| 41009_TS_DEWT_052025.nc | 01-Jun-2025 05:02 | 627462 | ||
| 41009_TS_DEWT_061989.nc | 26-Oct-2024 10:12 | 629201 | ||
| 41009_TS_DEWT_061990.nc | 26-Oct-2024 10:12 | 627522 | ||
| 41009_TS_DEWT_061991.nc | 26-Oct-2024 10:13 | 1112265 | ||
| 41009_TS_DEWT_061992.nc | 26-Oct-2024 10:13 | 1263730 | ||
| 41009_TS_DEWT_061993.nc | 26-Oct-2024 10:13 | 1265492 | ||
| 41009_TS_DEWT_061994.nc | 26-Oct-2024 10:13 | 1268339 | ||
| 41009_TS_DEWT_061995.nc | 26-Oct-2024 10:13 | 1144167 | ||
| 41009_TS_DEWT_061996.nc | 26-Oct-2024 10:13 | 1267655 | ||
| 41009_TS_DEWT_061997.nc | 26-Oct-2024 10:13 | 1144102 | ||
| 41009_TS_DEWT_061998.nc | 26-Oct-2024 10:13 | 5166861 | ||
| 41009_TS_DEWT_061999.nc | 26-Oct-2024 10:13 | 429279 | ||
| 41009_TS_DEWT_062000.nc | 26-Oct-2024 10:13 | 429289 | ||
| 41009_TS_DEWT_062001.nc | 26-Oct-2024 10:13 | 420659 | ||
| 41009_TS_DEWT_062002.nc | 26-Oct-2024 10:13 | 429282 | ||
| 41009_TS_DEWT_062003.nc | 26-Oct-2024 10:13 | 429286 | ||
| 41009_TS_DEWT_062004.nc | 26-Oct-2024 10:13 | 429295 | ||
| 41009_TS_DEWT_062005.nc | 26-Oct-2024 10:14 | 429291 | ||
| 41009_TS_DEWT_062006.nc | 26-Oct-2024 10:14 | 429290 | ||
| 41009_TS_DEWT_062007.nc | 26-Oct-2024 10:14 | 429297 | ||
| 41009_TS_DEWT_062008.nc | 26-Oct-2024 10:14 | 429292 | ||
| 41009_TS_DEWT_062009.nc | 26-Oct-2024 10:14 | 429285 | ||
| 41009_TS_DEWT_062010.nc | 26-Oct-2024 10:14 | 429293 | ||
| 41009_TS_DEWT_062011.nc | 26-Oct-2024 10:14 | 429293 | ||
| 41009_TS_DEWT_062012.nc | 26-Oct-2024 10:14 | 429280 | ||
| 41009_TS_DEWT_062013.nc | 26-Oct-2024 10:14 | 448889 | ||
| 41009_TS_DEWT_062014.nc | 26-Oct-2024 10:14 | 449640 | ||
| 41009_TS_DEWT_062015.nc | 26-Oct-2024 10:14 | 481285 | ||
| 41009_TS_DEWT_062016.nc | 26-Oct-2024 10:14 | 440141 | ||
| 41009_TS_DEWT_062017.nc | 26-Oct-2024 10:14 | 440062 | ||
| 41009_TS_DEWT_062018.nc | 26-Oct-2024 10:14 | 475896 | ||
| 41009_TS_DEWT_062019.nc | 26-Oct-2024 10:14 | 479653 | ||
| 41009_TS_DEWT_062020.nc | 26-Oct-2024 10:15 | 480221 | ||
| 41009_TS_DEWT_062021.nc | 26-Oct-2024 10:15 | 479500 | ||
| 41009_TS_DEWT_062022.nc | 26-Oct-2024 10:15 | 480102 | ||
| 41009_TS_DEWT_062023.nc | 26-Oct-2024 10:15 | 478744 | ||
| 41009_TS_DEWT_062025.nc | 01-Jul-2025 05:07 | 477891 | ||
| 41009_TS_DEWT_071989.nc | 26-Oct-2024 10:15 | 480574 | ||
| 41009_TS_DEWT_071990.nc | 26-Oct-2024 10:15 | 457071 | ||
| 41009_TS_DEWT_071991.nc | 26-Oct-2024 10:15 | 1112877 | ||
| 41009_TS_DEWT_071992.nc | 26-Oct-2024 10:15 | 1112802 | ||
| 41009_TS_DEWT_071993.nc | 26-Oct-2024 10:15 | 1030152 | ||
| 41009_TS_DEWT_071994.nc | 26-Oct-2024 10:15 | 1113142 | ||
| 41009_TS_DEWT_071995.nc | 26-Oct-2024 10:15 | 995711 | ||
| 41009_TS_DEWT_071996.nc | 26-Oct-2024 10:15 | 1113816 | ||
| 41009_TS_DEWT_071997.nc | 26-Oct-2024 10:15 | 1035639 | ||
| 41009_TS_DEWT_071998.nc | 26-Oct-2024 10:16 | 5105500 | ||
| 41009_TS_DEWT_071999.nc | 26-Oct-2024 10:16 | 429616 | ||
| 41009_TS_DEWT_072000.nc | 26-Oct-2024 10:16 | 429610 | ||
| 41009_TS_DEWT_072001.nc | 26-Oct-2024 10:16 | 429611 | ||
| 41009_TS_DEWT_072002.nc | 26-Oct-2024 10:16 | 429618 | ||
| 41009_TS_DEWT_072003.nc | 26-Oct-2024 10:16 | 429609 | ||
| 41009_TS_DEWT_072004.nc | 26-Oct-2024 10:16 | 429610 | ||
| 41009_TS_DEWT_072005.nc | 26-Oct-2024 10:16 | 429618 | ||
| 41009_TS_DEWT_072006.nc | 26-Oct-2024 10:16 | 429611 | ||
| 41009_TS_DEWT_072007.nc | 26-Oct-2024 10:16 | 428974 | ||
| 41009_TS_DEWT_072008.nc | 26-Oct-2024 10:16 | 429621 | ||
| 41009_TS_DEWT_072009.nc | 26-Oct-2024 10:16 | 429622 | ||
| 41009_TS_DEWT_072010.nc | 26-Oct-2024 10:16 | 429611 | ||
| 41009_TS_DEWT_072011.nc | 26-Oct-2024 10:16 | 429616 | ||
| 41009_TS_DEWT_072013.nc | 26-Oct-2024 10:16 | 429622 | ||
| 41009_TS_DEWT_072014.nc | 26-Oct-2024 10:16 | 450333 | ||
| 41009_TS_DEWT_072015.nc | 26-Oct-2024 10:17 | 450151 | ||
| 41009_TS_DEWT_072016.nc | 26-Oct-2024 10:17 | 440095 | ||
| 41009_TS_DEWT_072017.nc | 26-Oct-2024 10:17 | 588171 | ||
| 41009_TS_DEWT_072018.nc | 26-Oct-2024 10:17 | 588082 | ||
| 41009_TS_DEWT_072019.nc | 26-Oct-2024 10:17 | 441055 | ||
| 41009_TS_DEWT_072020.nc | 26-Oct-2024 10:17 | 628148 | ||
| 41009_TS_DEWT_072021.nc | 26-Oct-2024 10:17 | 629447 | ||
| 41009_TS_DEWT_072022.nc | 26-Oct-2024 10:17 | 628519 | ||
| 41009_TS_DEWT_072023.nc | 26-Oct-2024 10:17 | 629629 | ||
| 41009_TS_DEWT_072025.nc | 01-Aug-2025 05:17 | 627942 | ||
| 41009_TS_DEWT_081988.nc | 26-Oct-2024 10:17 | 628970 | ||
| 41009_TS_DEWT_081989.nc | 26-Oct-2024 10:17 | 590960 | ||
| 41009_TS_DEWT_081990.nc | 26-Oct-2024 10:17 | 1265281 | ||
| 41009_TS_DEWT_081991.nc | 26-Oct-2024 10:17 | 1268512 | ||
| 41009_TS_DEWT_081992.nc | 26-Oct-2024 10:17 | 1268626 | ||
| 41009_TS_DEWT_081993.nc | 26-Oct-2024 10:17 | 1105087 | ||
| 41009_TS_DEWT_081994.nc | 26-Oct-2024 10:17 | 1220575 | ||
| 41009_TS_DEWT_081995.nc | 26-Oct-2024 10:18 | 1268403 | ||
| 41009_TS_DEWT_081996.nc | 26-Oct-2024 10:18 | 1267408 | ||
| 41009_TS_DEWT_081997.nc | 26-Oct-2024 10:18 | 4669955 | ||
| 41009_TS_DEWT_081998.nc | 26-Oct-2024 10:18 | 426776 | ||
| 41009_TS_DEWT_081999.nc | 26-Oct-2024 10:18 | 429615 | ||
| 41009_TS_DEWT_082000.nc | 26-Oct-2024 10:18 | 429616 | ||
| 41009_TS_DEWT_082001.nc | 26-Oct-2024 10:18 | 429612 | ||
| 41009_TS_DEWT_082002.nc | 26-Oct-2024 10:18 | 429618 | ||
| 41009_TS_DEWT_082003.nc | 26-Oct-2024 10:18 | 429620 | ||
| 41009_TS_DEWT_082004.nc | 26-Oct-2024 10:18 | 429609 | ||
| 41009_TS_DEWT_082005.nc | 26-Oct-2024 10:18 | 429610 | ||
| 41009_TS_DEWT_082006.nc | 26-Oct-2024 10:18 | 429617 | ||
| 41009_TS_DEWT_082007.nc | 26-Oct-2024 10:18 | 429613 | ||
| 41009_TS_DEWT_082008.nc | 26-Oct-2024 10:18 | 429610 | ||
| 41009_TS_DEWT_082009.nc | 26-Oct-2024 10:18 | 429621 | ||
| 41009_TS_DEWT_082010.nc | 26-Oct-2024 10:19 | 429615 | ||
| 41009_TS_DEWT_082011.nc | 26-Oct-2024 10:19 | 429612 | ||
| 41009_TS_DEWT_082013.nc | 26-Oct-2024 10:19 | 429617 | ||
| 41009_TS_DEWT_082014.nc | 26-Oct-2024 10:19 | 449993 | ||
| 41009_TS_DEWT_082015.nc | 26-Oct-2024 10:19 | 451198 | ||
| 41009_TS_DEWT_082016.nc | 26-Oct-2024 10:19 | 588165 | ||
| 41009_TS_DEWT_082017.nc | 26-Oct-2024 10:19 | 588182 | ||
| 41009_TS_DEWT_082018.nc | 26-Oct-2024 10:19 | 588030 | ||
| 41009_TS_DEWT_082019.nc | 26-Oct-2024 10:19 | 459704 | ||
| 41009_TS_DEWT_082020.nc | 26-Oct-2024 10:19 | 630114 | ||
| 41009_TS_DEWT_082021.nc | 26-Oct-2024 10:19 | 629164 | ||
| 41009_TS_DEWT_082022.nc | 26-Oct-2024 10:19 | 630249 | ||
| 41009_TS_DEWT_082023.nc | 26-Oct-2024 10:19 | 630477 | ||
| 41009_TS_DEWT_082025.nc | 01-Sep-2025 05:05 | 629396 | ||
| 41009_TS_DEWT_091988.nc | 26-Oct-2024 10:19 | 629862 | ||
| 41009_TS_DEWT_091989.nc | 26-Oct-2024 10:19 | 440398 | ||
| 41009_TS_DEWT_091990.nc | 26-Oct-2024 10:19 | 1264483 | ||
| 41009_TS_DEWT_091991.nc | 26-Oct-2024 10:19 | 1264997 | ||
| 41009_TS_DEWT_091992.nc | 26-Oct-2024 10:20 | 1268534 | ||
| 41009_TS_DEWT_091993.nc | 26-Oct-2024 10:20 | 1267031 | ||
| 41009_TS_DEWT_091994.nc | 26-Oct-2024 10:20 | 1267016 | ||
| 41009_TS_DEWT_091995.nc | 26-Oct-2024 10:20 | 1266855 | ||
| 41009_TS_DEWT_091996.nc | 26-Oct-2024 10:20 | 1264487 | ||
| 41009_TS_DEWT_091997.nc | 26-Oct-2024 10:20 | 5236018 | ||
| 41009_TS_DEWT_091998.nc | 26-Oct-2024 10:20 | 429294 | ||
| 41009_TS_DEWT_091999.nc | 26-Oct-2024 10:20 | 429282 | ||
| 41009_TS_DEWT_092000.nc | 26-Oct-2024 10:20 | 429287 | ||
| 41009_TS_DEWT_092001.nc | 26-Oct-2024 10:20 | 429288 | ||
| 41009_TS_DEWT_092002.nc | 26-Oct-2024 10:20 | 429282 | ||
| 41009_TS_DEWT_092003.nc | 26-Oct-2024 10:20 | 429284 | ||
| 41009_TS_DEWT_092004.nc | 26-Oct-2024 10:20 | 429293 | ||
| 41009_TS_DEWT_092005.nc | 26-Oct-2024 10:20 | 429287 | ||
| 41009_TS_DEWT_092006.nc | 26-Oct-2024 10:20 | 429287 | ||
| 41009_TS_DEWT_092007.nc | 26-Oct-2024 10:20 | 429288 | ||
| 41009_TS_DEWT_092008.nc | 26-Oct-2024 10:20 | 429293 | ||
| 41009_TS_DEWT_092009.nc | 26-Oct-2024 10:21 | 429282 | ||
| 41009_TS_DEWT_092010.nc | 26-Oct-2024 10:21 | 429294 | ||
| 41009_TS_DEWT_092011.nc | 26-Oct-2024 10:21 | 429292 | ||
| 41009_TS_DEWT_092012.nc | 26-Oct-2024 10:21 | 429284 | ||
| 41009_TS_DEWT_092013.nc | 26-Oct-2024 10:21 | 449824 | ||
| 41009_TS_DEWT_092014.nc | 26-Oct-2024 10:21 | 422847 | ||
| 41009_TS_DEWT_092015.nc | 26-Oct-2024 10:21 | 440101 | ||
| 41009_TS_DEWT_092016.nc | 26-Oct-2024 10:21 | 440105 | ||
| 41009_TS_DEWT_092017.nc | 26-Oct-2024 10:21 | 440119 | ||
| 41009_TS_DEWT_092018.nc | 26-Oct-2024 10:21 | 481188 | ||
| 41009_TS_DEWT_092019.nc | 26-Oct-2024 10:21 | 480359 | ||
| 41009_TS_DEWT_092020.nc | 26-Oct-2024 10:21 | 480134 | ||
| 41009_TS_DEWT_092021.nc | 26-Oct-2024 10:21 | 479870 | ||
| 41009_TS_DEWT_092022.nc | 26-Oct-2024 10:21 | 459385 | ||
| 41009_TS_DEWT_092023.nc | 26-Oct-2024 10:21 | 479341 | ||
| 41009_TS_DEWT_092025.nc | 01-Oct-2025 04:50 | 477767 | ||
| 41009_TS_DEWT_101988.nc | 26-Oct-2024 10:21 | 479119 | ||
| 41009_TS_DEWT_101989.nc | 26-Oct-2024 10:21 | 439818 | ||
| 41009_TS_DEWT_101990.nc | 26-Oct-2024 10:21 | 1113490 | ||
| 41009_TS_DEWT_101991.nc | 26-Oct-2024 10:22 | 1113229 | ||
| 41009_TS_DEWT_101992.nc | 26-Oct-2024 10:22 | 1115107 | ||
| 41009_TS_DEWT_101993.nc | 26-Oct-2024 10:22 | 1113934 | ||
| 41009_TS_DEWT_101994.nc | 26-Oct-2024 10:22 | 1116600 | ||
| 41009_TS_DEWT_101995.nc | 26-Oct-2024 10:22 | 1115290 | ||
| 41009_TS_DEWT_101996.nc | 26-Oct-2024 10:22 | 1110926 | ||
| 41009_TS_DEWT_101997.nc | 26-Oct-2024 10:22 | 4872286 | ||
| 41009_TS_DEWT_101998.nc | 26-Oct-2024 10:22 | 429616 | ||
| 41009_TS_DEWT_101999.nc | 26-Oct-2024 10:22 | 429623 | ||
| 41009_TS_DEWT_102000.nc | 26-Oct-2024 10:22 | 429610 | ||
| 41009_TS_DEWT_102001.nc | 26-Oct-2024 10:22 | 429611 | ||
| 41009_TS_DEWT_102002.nc | 26-Oct-2024 10:22 | 429616 | ||
| 41009_TS_DEWT_102003.nc | 26-Oct-2024 10:22 | 429610 | ||
| 41009_TS_DEWT_102004.nc | 26-Oct-2024 10:22 | 429608 | ||
| 41009_TS_DEWT_102005.nc | 26-Oct-2024 10:22 | 429619 | ||
| 41009_TS_DEWT_102006.nc | 26-Oct-2024 10:22 | 429609 | ||
| 41009_TS_DEWT_102007.nc | 26-Oct-2024 10:22 | 429610 | ||
| 41009_TS_DEWT_102008.nc | 26-Oct-2024 10:22 | 429614 | ||
| 41009_TS_DEWT_102009.nc | 26-Oct-2024 10:23 | 429620 | ||
| 41009_TS_DEWT_102010.nc | 26-Oct-2024 10:23 | 429610 | ||
| 41009_TS_DEWT_102011.nc | 26-Oct-2024 10:23 | 429621 | ||
| 41009_TS_DEWT_102012.nc | 26-Oct-2024 10:23 | 429623 | ||
| 41009_TS_DEWT_102013.nc | 26-Oct-2024 10:23 | 449180 | ||
| 41009_TS_DEWT_102014.nc | 26-Oct-2024 10:23 | 432151 | ||
| 41009_TS_DEWT_102015.nc | 26-Oct-2024 10:23 | 588197 | ||
| 41009_TS_DEWT_102016.nc | 26-Oct-2024 10:23 | 588159 | ||
| 41009_TS_DEWT_102017.nc | 26-Oct-2024 10:23 | 588183 | ||
| 41009_TS_DEWT_102018.nc | 26-Oct-2024 10:23 | 630054 | ||
| 41009_TS_DEWT_102019.nc | 26-Oct-2024 10:23 | 629725 | ||
| 41009_TS_DEWT_102020.nc | 26-Oct-2024 10:23 | 631298 | ||
| 41009_TS_DEWT_102021.nc | 26-Oct-2024 10:23 | 629092 | ||
| 41009_TS_DEWT_102022.nc | 26-Oct-2024 10:23 | 447730 | ||
| 41009_TS_DEWT_102023.nc | 26-Oct-2024 10:23 | 629225 | ||
| 41009_TS_DEWT_102024.nc | 12-Jan-2025 20:58 | 628046 | ||
| 41009_TS_DEWT_102025.nc | 01-Nov-2025 07:58 | 628464 | ||
| 41009_TS_DEWT_111988.nc | 26-Oct-2024 10:23 | 423210 | ||
| 41009_TS_DEWT_111989.nc | 26-Oct-2024 10:23 | 1268391 | ||
| 41009_TS_DEWT_111990.nc | 26-Oct-2024 10:23 | 1265084 | ||
| 41009_TS_DEWT_111991.nc | 26-Oct-2024 10:24 | 1267808 | ||
| 41009_TS_DEWT_111992.nc | 26-Oct-2024 10:24 | 1265815 | ||
| 41009_TS_DEWT_111993.nc | 26-Oct-2024 10:24 | 1269160 | ||
| 41009_TS_DEWT_111994.nc | 26-Oct-2024 10:24 | 1267061 | ||
| 41009_TS_DEWT_111995.nc | 26-Oct-2024 10:24 | 1264866 | ||
| 41009_TS_DEWT_111996.nc | 26-Oct-2024 10:24 | 494060 | ||
| 41009_TS_DEWT_111997.nc | 26-Oct-2024 10:24 | 5374657 | ||
| 41009_TS_DEWT_111998.nc | 26-Oct-2024 10:24 | 429286 | ||
| 41009_TS_DEWT_111999.nc | 26-Oct-2024 10:24 | 427304 | ||
| 41009_TS_DEWT_112000.nc | 26-Oct-2024 10:24 | 429130 | ||
| 41009_TS_DEWT_112001.nc | 26-Oct-2024 10:24 | 429291 | ||
| 41009_TS_DEWT_112002.nc | 26-Oct-2024 10:24 | 429288 | ||
| 41009_TS_DEWT_112003.nc | 26-Oct-2024 10:24 | 429276 | ||
| 41009_TS_DEWT_112004.nc | 26-Oct-2024 10:24 | 429288 | ||
| 41009_TS_DEWT_112005.nc | 26-Oct-2024 10:24 | 429268 | ||
| 41009_TS_DEWT_112006.nc | 26-Oct-2024 10:24 | 429294 | ||
| 41009_TS_DEWT_112007.nc | 26-Oct-2024 10:25 | 429287 | ||
| 41009_TS_DEWT_112008.nc | 26-Oct-2024 10:25 | 429282 | ||
| 41009_TS_DEWT_112009.nc | 26-Oct-2024 10:25 | 429287 | ||
| 41009_TS_DEWT_112010.nc | 26-Oct-2024 10:25 | 429291 | ||
| 41009_TS_DEWT_112011.nc | 26-Oct-2024 10:25 | 429288 | ||
| 41009_TS_DEWT_112012.nc | 26-Oct-2024 10:25 | 429289 | ||
| 41009_TS_DEWT_112013.nc | 26-Oct-2024 10:25 | 449057 | ||
| 41009_TS_DEWT_112014.nc | 26-Oct-2024 10:25 | 450248 | ||
| 41009_TS_DEWT_112015.nc | 26-Oct-2024 10:25 | 440137 | ||
| 41009_TS_DEWT_112017.nc | 26-Oct-2024 10:25 | 440125 | ||
| 41009_TS_DEWT_112018.nc | 26-Oct-2024 10:25 | 440155 | ||
| 41009_TS_DEWT_112019.nc | 26-Oct-2024 10:25 | 478525 | ||
| 41009_TS_DEWT_112020.nc | 26-Oct-2024 10:25 | 481754 | ||
| 41009_TS_DEWT_112021.nc | 26-Oct-2024 10:26 | 478968 | ||
| 41009_TS_DEWT_112022.nc | 26-Oct-2024 10:26 | 479971 | ||
| 41009_TS_DEWT_112023.nc | 26-Oct-2024 10:26 | 480203 | ||
| 41009_TS_DEWT_112024.nc | 17-Jan-2025 15:19 | 479887 | ||
| 41009_TS_DEWT_112025.nc | 01-Dec-2025 10:01 | 478929 | ||
| 41009_TS_DEWT_121988.nc | 26-Oct-2024 10:26 | 440201 | ||
| 41009_TS_DEWT_121989.nc | 26-Oct-2024 10:26 | 1113055 | ||
| 41009_TS_DEWT_121990.nc | 26-Oct-2024 10:26 | 1115469 | ||
| 41009_TS_DEWT_121991.nc | 26-Oct-2024 10:26 | 1113448 | ||
| 41009_TS_DEWT_121992.nc | 26-Oct-2024 10:26 | 1108196 | ||
| 41009_TS_DEWT_121993.nc | 26-Oct-2024 10:26 | 1115489 | ||
| 41009_TS_DEWT_121994.nc | 26-Oct-2024 10:26 | 1031328 | ||
| 41009_TS_DEWT_121995.nc | 26-Oct-2024 10:26 | 1114027 | ||
| 41009_TS_DEWT_121996.nc | 26-Oct-2024 10:26 | 5775653 | ||
| 41009_TS_DEWT_121997.nc | 26-Oct-2024 10:26 | 5326360 | ||
| 41009_TS_DEWT_121998.nc | 26-Oct-2024 10:26 | 429620 | ||
| 41009_TS_DEWT_121999.nc | 26-Oct-2024 10:26 | 425551 | ||
| 41009_TS_DEWT_122000.nc | 26-Oct-2024 10:27 | 429218 | ||
| 41009_TS_DEWT_122001.nc | 26-Oct-2024 10:27 | 429616 | ||
| 41009_TS_DEWT_122002.nc | 26-Oct-2024 10:27 | 429612 | ||
| 41009_TS_DEWT_122003.nc | 26-Oct-2024 10:27 | 429611 | ||
| 41009_TS_DEWT_122004.nc | 26-Oct-2024 10:27 | 429616 | ||
| 41009_TS_DEWT_122005.nc | 26-Oct-2024 10:27 | 429616 | ||
| 41009_TS_DEWT_122006.nc | 26-Oct-2024 10:27 | 429608 | ||
| 41009_TS_DEWT_122007.nc | 26-Oct-2024 10:27 | 429617 | ||
| 41009_TS_DEWT_122008.nc | 26-Oct-2024 10:27 | 429620 | ||
| 41009_TS_DEWT_122009.nc | 26-Oct-2024 10:27 | 429609 | ||
| 41009_TS_DEWT_122010.nc | 26-Oct-2024 10:27 | 429615 | ||
| 41009_TS_DEWT_122011.nc | 26-Oct-2024 10:27 | 429616 | ||
| 41009_TS_DEWT_122012.nc | 26-Oct-2024 10:27 | 429616 | ||
| 41009_TS_DEWT_122013.nc | 26-Oct-2024 10:27 | 450784 | ||
| 41009_TS_DEWT_122014.nc | 26-Oct-2024 10:27 | 451041 | ||
| 41009_TS_DEWT_122015.nc | 26-Oct-2024 10:27 | 588182 | ||
| 41009_TS_DEWT_122017.nc | 26-Oct-2024 10:27 | 588185 | ||
| 41009_TS_DEWT_122018.nc | 26-Oct-2024 10:28 | 588096 | ||
| 41009_TS_DEWT_122019.nc | 26-Oct-2024 10:28 | 628899 | ||
| 41009_TS_DEWT_122020.nc | 26-Oct-2024 10:28 | 442547 | ||
| 41009_TS_DEWT_122021.nc | 26-Oct-2024 10:28 | 629074 | ||
| 41009_TS_DEWT_122022.nc | 26-Oct-2024 10:28 | 629457 | ||
| 41009_TS_DEWT_122023.nc | 26-Oct-2024 10:28 | 473501 | ||
| 41009_TS_DEWT_122024.nc | 23-Jan-2025 02:49 | 629664 | ||
| 41009_TS_DEWT_122025.nc | 27-Dec-2025 07:48 | 628276 | ||